Location: Oshawa
(43.9000°N, 78.8670°W)
Time: 07:56:04
(UTC-04:00)

SPOT 5 - Visible Passes

Search period start: 26 June 2016 00:00
Search period end: 06 July 2016 00:00
Orbit: 624 x 815 km, 98.5° (Epoch: 26 June)

Date Brightness Start Highest point End Pass type
(mag) Time Alt. Az. Time Alt. Az. Time Alt. Az.
26 Jun 2.8 21:56:02 10° SSE 22:00:34 89° WSW 22:05:24 10° NNW visible
27 Jun 4.4 22:44:51 10° SSW 22:48:51 30° W 22:53:03 10° NW visible
28 Jun 2.8 21:54:06 10° SSE 21:58:41 87° ENE 22:03:34 10° NNW visible
29 Jun 4.3 22:42:50 10° SSW 22:46:57 32° W 22:51:17 10° NNW visible
30 Jun 2.8 21:52:10 10° SSE 21:56:48 83° ENE 22:01:44 10° NNW visible
30 Jun 5.5 23:34:26 10° W 23:35:37 11° W 23:36:47 10° WNW visible
01 Jul 4.3 22:40:51 10° SSW 22:45:03 33° W 22:49:30 10° NNW visible
02 Jul 2.9 21:50:15 10° SSE 21:54:56 80° ENE 21:59:55 10° NNW visible
02 Jul 5.4 23:32:02 10° WSW 23:33:42 12° W 23:35:24 10° WNW visible
03 Jul 4.2 22:38:51 10° SSW 22:43:10 35° W 22:47:43 10° NNW visible
04 Jul 2.9 21:48:20 10° SSE 21:53:03 77° ENE 21:58:06 10° N visible
04 Jul 5.4 23:29:45 10° WSW 23:31:47 12° W 23:33:52 10° WNW visible
05 Jul 4.1 22:36:52 10° SSW 22:41:16 37° W 22:45:56 10° NNW visible
